Regional Weather Roundup
Issued by NWS

Home | Current Version | Previous Version | Graphics & Text | Print | Product List | Glossary On
Versions: 1 2 3 4 5 6 7 8 9 10 11 12 13 14 15 16 17 18 19 20 21 22 23 24 25 26 27 28 29 30 31 32 33 34 35 36 37 38 39 40 41 42 43 44 45 46 47 48 49 50
000
ASUS43 KDTX 040301
RWRMI
MICHIGAN HOURLY REGIONAL WEATHER ROUNDUP
NATIONAL WEATHER SERVICE DETROIT/PONTIAC MI
1100 PM EDT SUN MAY 03 2015

NOTE: "FAIR" INDICATES FEW OR NO CLOUDS BELOW 12,000 FEET WITH NO
SIGNIFICANT WEATHER AND/OR OBSTRUCTION TO VISIBILITY.

MIZ047>049-052>055-059>063-066>070-074>076-081>083-040400-
SOUTHEAST LOWER MICHIGAN

CITY           SKY/WX    TMP DP  RH WIND       PRES   REMARKS
ADRIAN         PTCLDY    66  46  48 SW9       30.03S
ALMA           MOCLDY    69  45  42 S9        29.95R
ANN ARBOR      MOCLDY    65  46  50 S6        30.02S
BAD AXE        MOCLDY    64  45  48 S7        29.97S
CARO           CLOUDY    67  47  48 CALM      29.96S
DETROIT CITY   FAIR      66  47  50 S6        30.02S
DETROIT        MOCLDY    65  47  52 S5        30.03S
FLINT          CLOUDY    72  46  39 S8        29.98F
GROSSE ILE     PTCLDY    61  54  77 S9        30.01F
HILLSDALE      MOCLDY    67  46  47 S6        30.02F
HOWELL         MOCLDY    68  44  41 S7        29.99F

CITY           SKY/WX    TMP DP  RH WIND       PRES   REMARKS
JACKSON        MOCLDY    68  46  45 S10       30.00F
LAMBERTVILLE   PTCLDY    68  45  42 S5        30.04S
LANSING        MOCLDY    68  47  46 S12       29.97F
LAPEER         MOCLDY    64  44  47 S8        29.99S
MASON          MOCLDY    65  46  49 S6        29.99S
MONROE         FAIR      66  46  48 S7        30.01F
PONTIAC        CLOUDY    70  45  40 S8        30.00S
PORT HOPE        N/A     69  42  37 S6        29.94S
PORT HURON     PTCLDY    63  46  55 S7        30.02S
TRI CITIES     CLOUDY    71  46  40 S8        29.95S
MIDLAND        MOCLDY    70  45  40 S5        29.93S
TROY           PTCLDY    72  44  36 S5        30.03S
SAGINAW HB     CLOUDY    70  45  40 S7        29.95F
$$
MIZ043>046-050>051-056>058-064>065-071>073-077>080-040400-
SOUTHWEST LOWER MICHIGAN

CITY           SKY/WX    TMP DP  RH WIND       PRES   REMARKS
BATTLE CREEK   PTCLDY    69  46  43 S13       29.98F
BENTON HARBOR  CLOUDY    63  52  67 S3        29.95F
BIG RAPIDS     MOCLDY    65  44  46 CALM      29.92R
COLDWATER      MOCLDY    69  44  40 S9        30.00S
FREMONT        FAIR      63  39  41 SW10G17   29.93R
HOLLAND        MOCLDY    58  49  72 SW7       29.96R
GRAND RAPIDS   MOCLDY    70  44  39 S12       29.94S
IONIA          FAIR      70  45  40 S12G20    29.94S
KALAMAZOO      MOCLDY    70  46  42 S7        29.98S
LUDINGTON      MOCLDY    64  53  68 SW9G17    29.92R
MARSHALL       MOCLDY    67  47  48 S8        29.98F
MOUNT PLEASANT MOCLDY    68  45  43 SE3       29.93S
MUSKEGON       MOCLDY    57  47  69 S7        29.93R
SOUTH HAVEN    CLOUDY    62  52  70 CALM      29.96F
$$
MIZ016>042-040400-
NORTHERN LOWER MICHIGAN

CITY           SKY/WX    TMP DP  RH WIND       PRES   REMARKS
ALPENA         PTCLDY    69  45  41 S7        29.91S
BEAVER ISLAND  CLOUDY    55  44  65 CALM      29.88S
BELLAIRE       MOCLDY    68  48  48 S3        29.89S
CADILLAC       MOCLDY    62  45  53 S3        29.93R
CHARLEVOIX     PTCLDY    69  49  47 S8        29.90S
FRANKFORT      CLEAR     66  49  54 SW10G18   29.90R
GAYLORD        PTCLDY    66  47  50 S8        29.91F
GRAYLING       CLOUDY    65  46  50 CALM      29.94S
HARBOR SPRINGS PTCLDY    62  48  60 CALM      29.87S
HOUGHTON LAKE  CLOUDY    66  45  46 S6        29.94R
MANISTEE       PTCLDY    64  48  55 S7        29.92R
OSCODA         PTCLDY    62  47  59 CALM      29.93S
PELLSTON       MOCLDY    71  48  43 S8        29.87F
ROGERS CITY    PTCLDY    67  47  47 SW7       29.89F
TRAVERSE CITY  CLOUDY    71  48  43 VRB3      29.90R
$$
MIZ007>008-015-040400-
EASTERN UPPER MICHIGAN

CITY           SKY/WX    TMP DP  RH WIND       PRES   REMARKS
KINROSS        CLOUDY    55  52  88 SW6       29.89F
MACKINAC ISLAN CLOUDY    56  43  61 N13       29.88R
NEWBERRY       LGT RAIN  55  52  90 S13       29.87R
S. S. MARIE    LGT RAIN  59  51  75 S9        29.87F
MUNISING         N/A     60  55  83 S9        29.82R
$$
MIZ004>006-011>014-085-040400-
CENTRAL UPPER MICHIGAN

CITY           SKY/WX    TMP DP  RH WIND       PRES   REMARKS
MANISTIQUE     HVY RAIN  50  48  93 SW6       29.87R
ESCANABA       CLOUDY    57  54  88 N8        29.85F THUNDER
MENOMINEE      CLOUDY    64  52  63 N20G29    29.88R
SAWYER-GWINN   CLOUDY    57  54  89 CALM      29.86S
$$
MIZ001>003-009>011-084-040400-
WESTERN UPPER MICHIGAN

CITY           SKY/WX    TMP DP  RH WIND       PRES   REMARKS
IRON MOUNTAIN  CLOUDY    58  56  93 S5        29.85S
HOUGHTON       CLOUDY    59  39  47 NW10      29.82S
COPPER HARBOR    N/A     62  38  40 N12       29.80F
IRONWOOD       CLOUDY    54  48  82 CALM      29.85R
$$

ABBREVIATIONS USED IN REMARKS
   TC - TEMPERATURE IN CELSIUS
  WCI - WIND CHILL INDEX
   HX - HEAT INDEX
  VSB - VISIBILITY



USA.gov is the U.S. government's official web portal to all federal, state and local government web resources and services.